Location: Marstown
(39.5056°N, 77.0820°W)
Time: 13:14:38
(UTC-04:00)

Tianhe-1 - Visible Passes

Search period start: 22 June 2021 00:00
Search period end: 02 July 2021 00:00
Orbit: 374 x 386 km, 41.5° (Epoch: 22 June)

Date Brightness Start Highest point End Pass type
(mag) Time Alt. Az. Time Alt. Az. Time Alt. Az.
22 Jun 3.6 03:01:21 15° E 03:01:21 15° E 03:02:08 10° E visible
22 Jun 1.1 04:33:28 15° W 04:36:00 81° NNW 04:39:09 10° ENE visible
23 Jun 1.0 03:35:05 69° SE 03:35:05 69° SE 03:38:08 10° ENE visible
24 Jun 3.9 02:36:42 12° E 02:36:42 12° E 02:37:02 10° E visible
24 Jun 1.4 04:08:49 21° W 04:10:45 64° N 04:13:53 10° ENE visible
25 Jun 1.9 03:10:26 48° ENE 03:10:26 48° ENE 03:12:50 10° ENE visible
25 Jun 1.6 04:43:28 10° WNW 04:46:34 58° N 04:49:42 10° E visible
26 Jun 1.6 03:44:13 31° WNW 03:45:28 57° N 03:48:35 10° ENE visible
27 Jun 3.1 02:45:58 25° ENE 02:45:58 25° ENE 02:47:29 10° ENE visible
27 Jun 1.4 04:18:09 10° WNW 04:21:16 67° N 04:24:24 10° E visible
28 Jun 1.5 03:19:58 56° NNW 03:20:09 58° N 03:23:15 10° E visible
28 Jun 1.0 04:53:50 10° WNW 04:56:57 64° SSW 05:00:03 10° ESE visible
29 Jun 4.2 02:22:05 10° ENE 02:22:05 10° ENE 02:22:06 10° ENE visible
29 Jun 1.0 03:54:14 25° WNW 03:55:53 85° NNE 03:59:02 10° ESE visible
30 Jun 3.3 02:56:45 20° E 02:56:45 20° E 02:57:52 10° E visible
30 Jun 1.4 04:28:57 13° W 04:31:27 40° SSW 04:34:25 10° SE visible
01 Jul 2.7 03:32:06 24° ESE 03:32:06 24° ESE 03:33:31 10° ESE visible
01 Jul 2.9 05:04:57 10° WSW 05:06:46 14° SW 05:08:35 10° S visible
01 Jul 3.2 21:37:51 10° S 21:38:26 12° SSE 21:38:26 12° SSE visible
